Weather History for Miami, FL

Change the Weather History Date:

Wednesday, March 27, 2013

  Actual Average Record
Temperature  
Mean Temperature 59 °F 74 °F  
Max Temperature 70 °F 81 °F 89 °F (1984)
Min Temperature 47 °F 66 °F 46 °F (1947)
Degree Days  
Heating Degree Days 6 0  
Month to date heating degree days 33 8  
Since 1 July heating degree days 69 124  
Cooling Degree Days 0 9  
Month to date cooling degree days 119 211  
Year to date cooling degree days 598 533  
Growing Degree Days 8 (Base 50)    
Moisture  
Dew Point 37 °F    
Average Humidity 50    
Maximum Humidity 66    
Minimum Humidity 33    
Precipitation  
Precipitation 0.00 in 0.11 in 1.99 in (1940)
Month to date precipitation 0.81 2.55  
Year to date precipitation 3.20 6.42  
Snow  
Snow 0.00 in - - ()
Month to date snowfall 0.0  
Since 1 July snowfall 0.0  
Snow Depth 0.00 in    
Sea Level Pressure  
Sea Level Pressure 30.22 in    
Wind  
Wind Speed 7 mph (NNW)    
Max Wind Speed 13 mph    
Max Gust Speed 18 mph    
Visibility 10 miles    
Events      
T = Trace of Precipitation, MM = Missing Value Source: NWS Daily Summary

Daily Weather History Graph

Daily Weather History Graph

Search for Another Location

Airport:

Trip Planner

Search our weather history database for the weather conditions in past years. The results will help you decide how hot, cold, wet, or windy it might be!

Date:

Astronomy

Mar. 27, 2013 Rise Set
Actual Time 7:17 AM EDT 7:35 PM EDT
Civil Twilight 6:54 AM EDT 7:58 PM EDT
Nautical Twilight 6:27 AM EDT 8:25 PM EDT
Astronomical Twilight 6:00 AM EDT 8:52 PM EDT
Moon 8:09 PM EDT (3/27) 7:12 AM EDT (3/27)
Length of Visible Light 13h 04m
Length of Day
12h 18m
Full, 100% of the Moon is Illuminated
Mar 27
Full
Apr 3
Last Quarter
Apr 10
New
Apr 18
First Quarter
Apr 25
Full

Hourly Weather History & Observations

Time (EDT) Temp. Dew Point Humidity Pressure Visibility Wind Dir Wind Speed Gust Speed Precip Events Conditions
12:53 AM 52.0 °F 36.0 °F 54% 30.22 in 10.0 mi NW 9.2 mph 16.1 mph N/A   Clear
1:53 AM 51.1 °F 36.0 °F 56% 30.22 in 10.0 mi NW 9.2 mph - N/A   Clear
2:53 AM 50.0 °F 35.1 °F 57% 30.21 in 10.0 mi NNW 8.1 mph - N/A   Clear
3:53 AM 48.9 °F 36.0 °F 61% 30.19 in 10.0 mi NNW 5.8 mph - N/A   Clear
4:53 AM 48.0 °F 37.9 °F 68% 30.19 in 10.0 mi NW 5.8 mph - N/A   Clear
5:53 AM 48.0 °F 37.9 °F 68% 30.20 in 10.0 mi NNW 6.9 mph 16.1 mph N/A   Clear
6:53 AM 48.0 °F 36.0 °F 63% 30.22 in 10.0 mi NNW 8.1 mph - N/A   Partly Cloudy
7:53 AM 48.0 °F 35.1 °F 61% 30.24 in 10.0 mi NNW 5.8 mph - N/A   Partly Cloudy
8:53 AM 52.0 °F 34.0 °F 50% 30.25 in 10.0 mi NNW 9.2 mph - N/A   Partly Cloudy
9:53 AM 57.0 °F 35.1 °F 44% 30.26 in 10.0 mi NNW 10.4 mph 17.3 mph N/A   Clear
10:53 AM 61.0 °F 37.0 °F 41% 30.27 in 10.0 mi NNW 9.2 mph - N/A   Clear
11:53 AM 64.0 °F 39.9 °F 41% 30.26 in 10.0 mi North 6.9 mph - N/A   Partly Cloudy
12:53 PM 66.0 °F 39.9 °F 38% 30.25 in 10.0 mi North 8.1 mph - N/A   Partly Cloudy
1:53 PM 66.9 °F 41.0 °F 39% 30.22 in 10.0 mi North 6.9 mph - N/A   Partly Cloudy
2:53 PM 69.1 °F 42.1 °F 38% 30.20 in 10.0 mi WNW 10.4 mph 17.3 mph N/A   Partly Cloudy
3:53 PM 70.0 °F 42.1 °F 36% 30.18 in 10.0 mi NW 9.2 mph - N/A   Scattered Clouds
4:53 PM 70.0 °F 41.0 °F 35% 30.17 in 10.0 mi Variable 4.6 mph 16.1 mph N/A   Scattered Clouds
5:53 PM 70.0 °F 39.9 °F 33% 30.18 in 10.0 mi WNW 6.9 mph - N/A   Scattered Clouds
6:53 PM 66.9 °F 37.9 °F 34% 30.19 in 10.0 mi NW 6.9 mph 16.1 mph N/A   Partly Cloudy
7:53 PM 64.0 °F 36.0 °F 35% 30.20 in 10.0 mi NNW 8.1 mph - N/A   Scattered Clouds
8:53 PM 63.0 °F 34.0 °F 34% 30.22 in 10.0 mi North 5.8 mph - N/A   Clear
9:53 PM 62.1 °F 33.1 °F 34% 30.24 in 10.0 mi NE 4.6 mph - N/A   Clear
10:53 PM 61.0 °F 34.0 °F 36% 30.24 in 10.0 mi Calm Calm - N/A   Clear
11:53 PM 60.1 °F 39.0 °F 46% 30.24 in 10.0 mi North 3.5 mph - N/A   Clear